Regional Weather Roundup
Issued by NWS Huntsville, AL

Home | Current Version | Previous Version | Text Only | Print | Product List | Glossary On
Versions: 1 2 3 4 5 6 7 8 9 10 11 12 13 14 15 16 17 18 19 20 21 22 23 24 25 26 27
000
ASUS44 KHUN 280410
RWRHUN

WEATHER ROUNDUP FOR THE TENNESSEE VALLEY
NATIONAL WEATHER SERVICE HUNTSVILLE AL
1100 PM CDT WED JUL 27 2016

ALZ001>004-280500-
NORTHWEST ALABAMA

CITY           SKY/WX    TMP DP  RH WIND       PRES   REMARKS
COURTLAND HCN    N/A     77 N/A N/A S3          N/A
RUSSELLVILLE     N/A     75 N/A N/A MISG        N/A
SHOALS AIRPORT MOCLDY    78  73  84 S5        29.99R
SHOALS TVA RES   N/A     77 N/A N/A MISG        N/A
$$

ALZ005>007-016-280500-
NORTH CENTRAL ALABAMA

CITY           SKY/WX    TMP DP  RH WIND       PRES   REMARKS
CULLMAN AG STN   N/A     75 N/A N/A CALM        N/A
DECATUR AP     PTCLDY    77  73  87 S8        29.99F
HUNTSVILLE AP  PTCLDY    78  71  79 S5        29.99F
HUN NWS/UAH      N/A     78  70  75 S6          N/A
MERIDIANVILLE  PTCLDY    77  64  65 S7        30.00S
REDSTONE ARSN  PTCLDY    76  73  89 SW6       29.98F
VINEMONT AP    MOCLDY    75  73  92 S5        30.03F
$$

ALZ008>010-280500-
NORTHEAST ALABAMA

CITY           SKY/WX    TMP DP  RH WIND       PRES   REMARKS
ALBERTVILLE      N/A     75  75 100 S6        30.02S
FORT PAYNE     MOCLDY    73  66  78 CALM      30.02S
SCOTTSBORO AP  PTCLDY    79  72  78 SW3       30.01S
SCOTTSBORO HCN   N/A     79 N/A N/A MISG        N/A
VALLEY HEAD      N/A     73 N/A N/A MISG        N/A
$$

TNZ076-096-097-280500-
SOUTHEASTERN MIDDLE TENNESSEE

CITY           SKY/WX    TMP DP  RH WIND       PRES   REMARKS
TULLAHOMA      CLEAR     77  70  78 S8        30.01S
WINCHESTER     CLEAR     79  70  73 S3        30.01R
$$

...SURROUNDING SITES...

CITY           SKY/WX    TMP DP  RH WIND       PRES   REMARKS
ATLANTA        PTCLDY    80  67  64 VRB5      30.05S
ANNISTON       CLEAR     77  71  82 CALM      30.02F
BIRMINGHAM     MOCLDY    79  72  79 S12       30.04R
CHATTANOOGA    PTCLDY    82  68  62 S9        30.01R
DALTON         CLEAR     79  70  73 CALM      30.03R
GADSDEN        PTCLDY    75  72  90 CALM        N/A
GOLDEN TRNGL   MOCLDY    75  70  83 S6        29.98R
HALEYVILLE     CLOUDY    76  73  91 S6        30.03R
JACKSON TN     CLOUDY    78  76  93 CALM      29.94S
MEMPHIS        LGT RAIN  79  73  83 CALM      29.92R
NASHVILLE      CLOUDY    84  70  62 SW7       29.94F
OXFORD MS      CLOUDY    73  73 100 S3        29.96S FOG
ROME           MOCLDY    79  68  69 S3        30.02S
SAVANNAH       MOCLDY    77  75  94 S7        29.95S
TUPELO         CLOUDY    77  73  87 SE7       29.96R
TUSCALOOSA     PTCLDY    76  74  93 S7        30.01R
$$

...GULF COAST WEATHER...

CITY           SKY/WX    TMP DP  RH WIND       PRES   REMARKS
GULFPORT       CLEAR     77  74  90 CALM      30.02R
PASCAGOULA     CLEAR     75  75 100 CALM      30.03S
MOBILE         PTCLDY    77  73  87 S6        30.04S
GULF SHORES    CLEAR     76  76 100 CALM      30.04S
PENSACOLA      CLEAR     77  73  87 W3        30.03F
DESTIN         CLEAR     87  77  72 SW5       30.04S HX  99
PANAMA CITY    CLEAR     83  75  75 W5        30.05S HX  91
APPALACHICOLA  CLEAR     79  77  94 CALM      30.05F
$$





USA.gov is the U.S. government's official web portal to all federal, state and local government web resources and services.